Location: Garrison
(47.6536°N, 101.4238°W)
Time: 07:05:38
(UTC+00:00)

N. Korean satellite - Visible Passes

Search period start: 26 November 2020 00:00
Search period end: 06 December 2020 00:00
Orbit: 452 x 504 km, 97.2° (Epoch: 25 November)

Date Brightness Start Highest point End Pass type
(mag) Time Alt. Az. Time Alt. Az. Time Alt. Az.
26 Nov 10.2 11:06:26 10° E 11:07:02 10° E 11:07:37 10° E visible
26 Nov 6.5 12:37:12 10° N 12:40:45 64° WNW 12:44:19 10° SSW visible
27 Nov 7.1 12:10:56 10° NNE 12:14:29 60° E 12:18:04 10° S visible
28 Nov 9.7 00:23:45 10° SW 00:25:58 16° W 00:28:11 10° NW visible
28 Nov 8.6 11:44:56 10° NE 11:48:06 29° E 11:51:19 10° SSE visible
28 Nov 7.8 13:18:30 10° NNW 13:21:19 22° WNW 13:24:10 10° WSW visible
28 Nov 8.5 23:56:24 10° SSW 23:59:30 32° W 00:02:38 10° NNW visible
29 Nov 9.7 11:19:27 10° NE 11:21:39 15° E 11:23:51 10° SE visible
29 Nov 6.9 12:51:46 10° N 12:55:10 42° WNW 12:58:38 10° SW visible
29 Nov 6.8 23:29:43 10° S 23:33:07 70° W 23:36:35 10° NNW visible
30 Nov 6.5 12:25:19 10° NNE 12:28:56 89° W 12:32:35 10° SSW visible
01 Dec 10.1 00:39:29 10° WSW 00:40:31 11° W 00:41:35 10° WNW visible
01 Dec 7.8 11:59:07 10° NNE 12:02:36 43° E 12:06:06 10° S visible
01 Dec 8.2 13:33:20 10° NNW 13:35:38 16° WNW 13:37:55 10° WSW visible
02 Dec 9.3 00:11:16 10° SSW 00:13:58 22° W 00:16:44 10° NW visible
02 Dec 9.1 11:33:16 10° NE 11:36:10 22° E 11:39:04 10° SSE visible
02 Dec 7.4 13:06:20 10° N 13:09:31 29° WNW 13:12:43 10° SW visible
02 Dec 7.8 23:44:13 10° S 23:47:31 45° W 23:50:53 10° NNW visible
03 Dec 10.1 11:08:20 10° ENE 11:09:38 11° E 11:10:54 10° ESE visible
03 Dec 6.6 12:39:43 10° N 12:43:18 59° WNW 12:46:55 10° SSW visible
04 Dec 6.9 12:13:21 10° NNE 12:17:00 66° ESE 12:20:39 10° S visible
05 Dec 9.7 00:26:19 10° SW 00:28:25 15° W 00:30:32 10° NW visible
05 Dec 8.5 11:47:16 10° NNE 11:50:36 32° E 11:53:55 10° SSE visible
05 Dec 7.8 13:20:57 10° NNW 13:23:45 21° WNW 13:26:34 10° WSW visible
